Flag for Germany Weather past 2 weeks in Heidenheim an der Brenz, Baden-Württemberg, Germany

32 °F

Low clouds.

Feels Like: 32 °F
Forecast: 33 / 35 °F
Wind: 2 mph from Northwest

Location: Stoetten

Current Time: Nov 25, 2015 at 11:28:40 PM

Latest Report: Nov 25, 2015 at 10:00 PM

Visibility: 0 mi

Pressure: 29.79 "Hg

Humidity: 100%

Dew point: 32 °F

Location of Heidenheim an der BrenzLocation

Historic Weather in Heidenheim an der Brenz — Graph


Heidenheim an der Brenz temperature yesterday

Maximum temperature yesterday: 30 °F (at 1:00 PM)
Minimum temperature yesterday: 24 °F (at 5:00 PM)
Average temperature yesterday: 26 °F

Past Weeks' High & Low Weather Summary

High60 °F (Nov 16, 2:00 PM)100% (Nov 20, 9:00 AM)30.47 "Hg (Nov 20, 9:00 AM)
Low24 °F (Nov 24, 5:00 PM)45% (Nov 16, 2:00 PM)29.41 "Hg (Nov 21, 2:00 PM)
Average42 °F84%30.08 "Hg
* Reported Nov 10 10:00 PM — Nov 25 10:00 PM, Heidenheim an der Brenz, Weather by CustomWeather, © 2015

Note: Actual official high and low records may vary slightly from our data, if they occured in-between our weather recording intervals... More about our weather records


Heidenheim an der Brenz weather history for previous 24 hours

Time TempWeatherWind HumidityBarometerVisibility
10:00 PM
Wed, Nov 25
32 °FLow clouds.2 mph100%29.79 "Hg0 mi
9:00 PM33 °FLow clouds.5 mph100%29.79 "Hg19 mi
8:00 PM33 °FOvercast.3 mph100%29.79 "Hg1 mi
7:00 PM33 °FFog.3 mph100%29.78 "Hg1 mi
6:00 PM33 °FFog.5 mph100%29.78 "Hg0 mi
5:00 PM33 °FLight snow. Dense fog.5 mph100%29.78 "Hg0 mi
4:00 PM33 °FLight rain. Overcast.6 mph98%29.77 "Hg7 mi
3:00 PM33 °FOvercast.5 mph100%29.78 "Hg7 mi
2:00 PM33 °FOvercast.5 mph100%29.79 "Hg22 mi
1:00 PM32 °FLight snow. Low clouds.6 mph100%29.80 "Hg2 mi
12:00 PM32 °FLight snow. Low clouds.3 mph100%29.83 "Hg1 mi
11:00 AM32 °FSnow flurries. Low clouds.5 mph100%29.83 "Hg3 mi
10:00 AM32 °FSnow flurries. Low clouds.5 mph100%29.84 "Hg4 mi
9:00 AM31 °FLight snow. Low clouds.6 mph100%29.85 "Hg1 mi
7:00 AM30 °FLight snow. Low clouds.5 mph100%29.87 "Hg2 mi
4:00 AM29 °FLight snow. Low clouds.6 mph100%29.90 "Hg1 mi
3:00 AM29 °FLight snow. Low clouds.6 mph100%29.91 "Hg1 mi
2:00 AM28 °FLight snow. Low clouds.6 mph96%29.93 "Hg1 mi
Weather by CustomWeather, © 2015

See weather overviewHow to use our weather pages